• En España
  • Lista de países
  • Para 7 días
  • Temperatura del agua
  • Mapa Satelital
  • El tiempo en el mapa
  • Informadores
  • user-avatar
    Iniciar sesión

    Tiempo cada hora Brisbane

    Hoy, 15 Diciembre, Viernes

    Tiempo Temperatura Precipitaciones Viento Presión Humedad
    00:00 +22°C° 0 mm 1 mps 758 mmHg 88%
    01:00 +22°C° 0 mm 1 mps 758 mmHg 90%
    02:00 +21°C° 0 mm 1 mps 758 mmHg 90%
    03:00 +21°C° 0 mm 1 mps 758 mmHg 91%
    04:00 +21°C° 0 mm 1 mps 757 mmHg 92%
    05:00 +23°C° 0 mm 1 mps 758 mmHg 87%
    06:00 +24°C° 0 mm 1 mps 758 mmHg 81%
    07:00 +25°C° 0 mm 1 mps 758 mmHg 76%
    08:00 +27°C° 0 mm 1 mps 758 mmHg 65%
    09:00 +30°C° 0 mm 1 mps 758 mmHg 54%
    10:00 +32°C° 0 mm 2 mps 758 mmHg 43%
    11:00 +34°C° 0 mm 2 mps 758 mmHg 40%
    12:00 +35°C° 0 mm 3 mps 757 mmHg 37%
    13:00 +35°C° 0 mm 3 mps 757 mmHg 35%
    14:00 +34°C° 0 mm 4 mps 757 mmHg 38%
    15:00 +34°C° 0 mm 4 mps 756 mmHg 40%
    16:00 +32°C° 0 mm 4 mps 756 mmHg 46%
    17:00 +29°C° 0 mm 4 mps 757 mmHg 55%
    18:00 +27°C° 0 mm 4 mps 757 mmHg 64%
    19:00 +26°C° 0 mm 3 mps 758 mmHg 72%
    20:00 +25°C° 0 mm 3 mps 758 mmHg 78%
    21:00 +24°C° 0 mm 3 mps 759 mmHg 83%
    22:00 +24°C° 0 mm 2 mps 759 mmHg 87%
    23:00 +23°C° 0 mm 2 mps 759 mmHg 88%

    Mañana, 16 Diciembre, Sábado

    Tiempo Temperatura Precipitaciones Viento Presión Humedad
    00:00 +23°C° 0 mm 2 mps 759 mmHg 89%
    01:00 +23°C° 0 mm 2 mps 759 mmHg 91%
    02:00 +23°C° 0,1 mm 2 mps 759 mmHg 91%
    03:00 +23°C° 0,1 mm 2 mps 759 mmHg 91%
    04:00 +23°C° 0,1 mm 2 mps 759 mmHg 91%
    05:00 +24°C° 0,1 mm 2 mps 760 mmHg 86%
    06:00 +25°C° 0,1 mm 2 mps 760 mmHg 81%
    07:00 +27°C° 0,1 mm 2 mps 760 mmHg 76%
    08:00 +28°C° 0,1 mm 3 mps 760 mmHg 69%
    09:00 +29°C° 0,1 mm 3 mps 760 mmHg 61%
    10:00 +31°C° 0,1 mm 3 mps 760 mmHg 54%
    11:00 +31°C° 0 mm 3 mps 760 mmHg 51%
    12:00 +33°C° 0 mm 3 mps 760 mmHg 48%
    13:00 +34°C° 0 mm 3 mps 759 mmHg 46%
    14:00 +33°C° 0 mm 4 mps 759 mmHg 47%
    15:00 +33°C° 0 mm 4 mps 759 mmHg 48%
    16:00 +33°C° 0 mm 4 mps 758 mmHg 49%
    17:00 +30°C° 0 mm 4 mps 759 mmHg 57%
    18:00 +28°C° 0 mm 4 mps 759 mmHg 65%
    19:00 +26°C° 0 mm 3 mps 759 mmHg 73%
    20:00 +25°C° 0 mm 3 mps 760 mmHg 76%
    21:00 +24°C° 0 mm 3 mps 760 mmHg 80%
    22:00 +24°C° 0 mm 3 mps 760 mmHg 83%
    23:00 +23°C° 0 mm 2 mps 760 mmHg 84%

    Pasado mañana, 17 Diciembre, Domingo

    Tiempo Temperatura Precipitaciones Viento Presión Humedad
    00:00 +23°C° 0 mm 2 mps 760 mmHg 85%
    01:00 +23°C° 0 mm 2 mps 760 mmHg 86%
    02:00 +21°C° 0 mm 2 mps 760 mmHg 86%
    03:00 +22°C° 0 mm 1 mps 760 mmHg 87%
    04:00 +22°C° 0 mm 1 mps 759 mmHg 88%
    05:00 +23°C° 0 mm 1 mps 760 mmHg 82%
    06:00 +25°C° 0 mm 2 mps 760 mmHg 76%
    07:00 +26°C° 0 mm 2 mps 760 mmHg 70%
    08:00 +28°C° 0 mm 2 mps 760 mmHg 64%
    09:00 +29°C° 0 mm 3 mps 760 mmHg 59%
    10:00 +31°C° 0 mm 3 mps 760 mmHg 53%
    11:00 +31°C° 0 mm 3 mps 760 mmHg 50%
    12:00 +33°C° 0 mm 4 mps 759 mmHg 47%
    13:00 +34°C° 0 mm 4 mps 759 mmHg 45%
    14:00 +34°C° 0 mm 4 mps 758 mmHg 47%
    15:00 +33°C° 0 mm 4 mps 758 mmHg 50%
    16:00 +32°C° 0 mm 4 mps 758 mmHg 52%
    17:00 +29°C° 0 mm 4 mps 758 mmHg 59%
    18:00 +28°C° 0 mm 3 mps 759 mmHg 66%
    19:00 +26°C° 0 mm 3 mps 759 mmHg 73%
    20:00 +25°C° 0 mm 3 mps 760 mmHg 75%
    21:00 +25°C° 0 mm 2 mps 760 mmHg 77%
    22:00 +24°C° 0 mm 2 mps 760 mmHg 79%
    23:00 +24°C° 0 mm 2 mps 760 mmHg 81%

    18 Diciembre, Lunes

    Tiempo Temperatura Precipitaciones Viento Presión Humedad
    00:00 +23°C° 0 mm 2 mps 760 mmHg 82%
    01:00 +23°C° 0 mm 2 mps 760 mmHg 84%
    02:00 +23°C° 0 mm 2 mps 760 mmHg 86%
    03:00 +23°C° 0 mm 2 mps 759 mmHg 87%
    04:00 +21°C° 0 mm 2 mps 759 mmHg 89%
    05:00 +24°C° 0 mm 2 mps 759 mmHg 84%
    06:00 +25°C° 0 mm 2 mps 760 mmHg 79%
    07:00 +26°C° 0 mm 3 mps 760 mmHg 74%
    08:00 +27°C° 0 mm 3 mps 760 mmHg 68%
    09:00 +28°C° 0 mm 3 mps 760 mmHg 63%
    10:00 +29°C° 0 mm 3 mps 760 mmHg 57%
    11:00 +31°C° 0 mm 3 mps 759 mmHg 51%
    12:00 +33°C° 0 mm 3 mps 758 mmHg 45%
    13:00 +34°C° 0 mm 3 mps 758 mmHg 39%
    14:00 +34°C° 0 mm 3 mps 758 mmHg 40%
    15:00 +33°C° 0 mm 3 mps 757 mmHg 41%
    16:00 +33°C° 0 mm 4 mps 757 mmHg 42%
    17:00 +30°C° 0 mm 3 mps 757 mmHg 51%
    18:00 +28°C° 0 mm 3 mps 758 mmHg 60%
    19:00 +26°C° 0 mm 3 mps 758 mmHg 69%
    20:00 +25°C° 0 mm 3 mps 759 mmHg 76%
    21:00 +24°C° 0 mm 3 mps 759 mmHg 82%
    22:00 +24°C° 0 mm 2 mps 759 mmHg 88%
    23:00 +24°C° 0 mm 2 mps 759 mmHg 88%

    19 Diciembre, Martes

    Tiempo Temperatura Precipitaciones Viento Presión Humedad
    00:00 +24°C° 0 mm 2 mps 759 mmHg 89%
    01:00 +24°C° 0 mm 2 mps 758 mmHg 89%
    02:00 +24°C° 0,1 mm 2 mps 758 mmHg 89%
    03:00 +24°C° 0,1 mm 2 mps 758 mmHg 89%
    04:00 +24°C° 0,1 mm 2 mps 758 mmHg 90%
    05:00 +25°C° 0 mm 2 mps 758 mmHg 86%
    06:00 +26°C° 0 mm 2 mps 759 mmHg 82%
    07:00 +27°C° 0 mm 2 mps 759 mmHg 77%
    08:00 +28°C° 0 mm 2 mps 759 mmHg 70%
    09:00 +30°C° 0 mm 3 mps 759 mmHg 62%
    10:00 +31°C° 0 mm 3 mps 758 mmHg 54%
    11:00 +34°C° 0 mm 3 mps 758 mmHg 50%
    12:00 +35°C° 0 mm 3 mps 757 mmHg 45%
    13:00 +36°C° 0 mm 4 mps 757 mmHg 41%
    14:00 +35°C° 0 mm 4 mps 756 mmHg 43%
    15:00 +35°C° 0 mm 4 mps 756 mmHg 45%
    16:00 +34°C° 0 mm 5 mps 755 mmHg 47%
    17:00 +32°C° 0 mm 4 mps 756 mmHg 55%
    18:00 +29°C° 0 mm 4 mps 756 mmHg 62%
    19:00 +27°C° 0 mm 4 mps 757 mmHg 69%
    20:00 +26°C° 0 mm 4 mps 757 mmHg 73%
    21:00 +25°C° 0 mm 3 mps 758 mmHg 77%
    22:00 +24°C° 0 mm 3 mps 758 mmHg 81%
    23:00 +24°C° 0 mm 2 mps 758 mmHg 83%

    20 Diciembre, Miércoles

    Tiempo Temperatura Precipitaciones Viento Presión Humedad
    00:00 +23°C° 0 mm 2 mps 758 mmHg 85%
    01:00 +23°C° 0 mm 2 mps 757 mmHg 87%
    02:00 +23°C° 0 mm 2 mps 757 mmHg 88%
    03:00 +21°C° 0 mm 2 mps 757 mmHg 89%
    04:00 +21°C° 0 mm 2 mps 757 mmHg 90%
    05:00 +23°C° 0 mm 2 mps 758 mmHg 84%
    06:00 +25°C° 0 mm 2 mps 758 mmHg 78%
    07:00 +26°C° 0 mm 2 mps 759 mmHg 72%
    08:00 +28°C° 0 mm 2 mps 758 mmHg 62%
    09:00 +31°C° 0 mm 3 mps 758 mmHg 53%
    10:00 +34°C° 0 mm 3 mps 758 mmHg 43%
    11:00 +35°C° 0 mm 3 mps 757 mmHg 41%
    12:00 +36°C° 0 mm 4 mps 757 mmHg 38%
    13:00 +37°C° 0 mm 4 mps 756 mmHg 36%
    14:00 +36°C° 0 mm 4 mps 756 mmHg 38%
    15:00 +36°C° 0 mm 5 mps 756 mmHg 41%
    16:00 +35°C° 0 mm 5 mps 755 mmHg 43%
    17:00 +33°C° 0 mm 5 mps 756 mmHg 50%
    18:00 +30°C° 0 mm 5 mps 756 mmHg 57%
    19:00 +27°C° 0 mm 5 mps 757 mmHg 64%
    20:00 +27°C° 0 mm 4 mps 757 mmHg 69%
    21:00 +26°C° 0 mm 4 mps 758 mmHg 73%
    22:00 +25°C° 0 mm 4 mps 758 mmHg 78%
    23:00 +25°C° 0 mm 3 mps 758 mmHg 80%
    Mostrar más